Zurück zum Katalog

HULIANWANG DIGUI-39

AktivKommunikationPO
NORAD 64960·PAYLOAD·🇨🇳 China

Gestartet Jul 27, 2025 von Taiyuan Satellite Launch Center

Loading…

Nächste Überflüge (nächste 24 Stunden)

TLE

AktuellSource: Space-Track

Epoche: Sep 14, 2026, 23:25 UTC

1 64960U 25159E   26257.97626025 -.00000064  00000-0 -18261-3 0  9999
2 64960  86.4890 252.0417 0002077  88.2946 271.8425 13.24403689 55016

Verfolge HULIANWANG DIGUI-39 in Echtzeit mit AllMySat

Download on the App Store